Time,TemperatureF,DewpointF,PressureIn,WindDirection,WindDirectionDegrees,WindSpeedMPH,WindSpeedGustMPH,Humidity,HourlyPrecipIn,Conditions,Clouds,dailyrainin,SoftwareType,DateUTC
2013-03-28 00:01:00,42.0,10.0,29.80,WSW,252,2.0,-999.0,26,-99.99,,,-99.99,,2013-03-28 06:01:00,
2013-03-28 00:22:00,42.0,10.0,29.80,WSW,252,2.0,-999.0,27,-99.99,,,-99.99,,2013-03-28 06:22:00,
2013-03-28 00:32:00,41.0,10.0,29.79,WSW,252,1.0,-999.0,28,-99.99,,,-99.99,,2013-03-28 06:32:00,
2013-03-28 00:52:00,41.0,10.0,29.80,WSW,252,2.0,-999.0,27,-99.99,,,-99.99,,2013-03-28 06:52:00,
2013-03-28 01:01:00,41.0,10.0,29.81,WSW,252,2.0,-999.0,27,-99.99,,,-99.99,,2013-03-28 07:01:00,
2013-03-28 01:22:00,40.0,11.0,29.81,WSW,252,3.0,-999.0,30,-99.99,,,-99.99,,2013-03-28 07:22:00,
2013-03-28 01:32:00,38.0,11.0,29.81,WSW,252,3.0,-999.0,33,-99.99,,,-99.99,,2013-03-28 07:32:00,
2013-03-28 01:52:00,38.0,11.0,29.82,WSW,254,1.0,-999.0,32,-99.99,,,-99.99,,2013-03-28 07:52:00,
2013-03-28 02:02:00,37.0,12.0,29.83,WSW,258,1.0,-999.0,35,-99.99,,,-99.99,,2013-03-28 08:02:00,
2013-03-28 02:21:00,38.0,12.0,29.83,West,259,3.0,-999.0,34,-99.99,,,-99.99,,2013-03-28 08:21:00,
2013-03-28 02:32:00,39.0,11.0,29.82,WNW,299,4.0,-999.0,31,-99.99,,,-99.99,,2013-03-28 08:32:00,
2013-03-28 02:41:00,39.0,11.0,29.82,WNW,299,4.0,-999.0,31,-99.99,,,-99.99,,2013-03-28 08:41:00,
2013-03-28 02:52:00,39.0,12.0,29.82,WNW,300,3.0,-999.0,32,-99.99,,,-99.99,,2013-03-28 08:52:00,
2013-03-28 03:01:00,38.0,11.0,29.82,WNW,300,1.0,-999.0,33,-99.99,,,-99.99,,2013-03-28 09:01:00,
2013-03-28 03:11:00,38.0,11.0,29.82,WNW,300,1.0,-999.0,33,-99.99,,,-99.99,,2013-03-28 09:11:00,
2013-03-28 03:22:00,38.0,11.0,29.81,WNW,300,1.0,-999.0,33,-99.99,,,-99.99,,2013-03-28 09:22:00,
2013-03-28 03:32:00,39.0,11.0,29.82,NW,320,2.0,-999.0,31,-99.99,,,-99.99,,2013-03-28 09:32:00,
2013-03-28 03:42:00,39.0,11.0,29.82,NW,320,2.0,-999.0,31,-99.99,,,-99.99,,2013-03-28 09:42:00,
2013-03-28 03:52:00,38.0,13.0,29.83,NW,320,2.0,-999.0,35,-99.99,,,-99.99,,2013-03-28 09:52:00,
2013-03-28 04:02:00,38.0,12.0,29.83,NW,320,0.0,-999.0,34,-99.99,,,-99.99,,2013-03-28 10:02:00,
2013-03-28 04:12:00,38.0,12.0,29.83,NW,320,0.0,-999.0,34,-99.99,,,-99.99,,2013-03-28 10:12:00,
2013-03-28 04:22:00,38.0,15.0,29.83,NW,320,6.0,-999.0,38,-99.99,,,-99.99,,2013-03-28 10:22:00,
2013-03-28 04:32:00,37.0,13.0,29.81,NW,320,0.0,-999.0,36,-99.99,,,-99.99,,2013-03-28 10:32:00,
2013-03-28 04:42:00,37.0,13.0,29.81,NW,320,0.0,-999.0,36,-99.99,,,-99.99,,2013-03-28 10:42:00,
2013-03-28 04:53:00,37.0,14.0,29.83,NW,320,2.0,-999.0,38,-99.99,,,-99.99,,2013-03-28 10:53:00,
2013-03-28 05:02:00,37.0,14.0,29.81,NW,321,4.0,-999.0,39,-99.99,,,-99.99,,2013-03-28 11:02:00,
2013-03-28 05:12:00,37.0,14.0,29.81,NW,321,4.0,-999.0,39,-99.99,,,-99.99,,2013-03-28 11:12:00,
2013-03-28 05:32:00,37.0,14.0,29.83,NW,321,3.0,-999.0,39,-99.99,,,-99.99,,2013-03-28 11:32:00,
2013-03-28 05:42:00,37.0,14.0,29.83,NW,321,3.0,-999.0,39,-99.99,,,-99.99,,2013-03-28 11:42:00,
2013-03-28 05:52:00,37.0,14.0,29.84,NW,321,1.0,-999.0,38,-99.99,,,-99.99,,2013-03-28 11:52:00,
2013-03-28 06:02:00,37.0,14.0,29.84,NW,321,1.0,-999.0,38,-99.99,,,-99.99,,2013-03-28 12:02:00,
2013-03-28 06:12:00,37.0,14.0,29.84,NW,321,1.0,-999.0,38,-99.99,,,-99.99,,2013-03-28 12:12:00,
2013-03-28 06:32:00,34.0,14.0,29.86,NW,321,1.0,-999.0,43,-99.99,,,-99.99,,2013-03-28 12:32:00,
2013-03-28 06:42:00,34.0,14.0,29.86,NW,321,1.0,-999.0,43,-99.99,,,-99.99,,2013-03-28 12:42:00,
2013-03-28 07:02:00,33.0,15.0,29.87,NW,321,3.0,-999.0,47,-99.99,,,-99.99,,2013-03-28 13:02:00,
2013-03-28 07:21:00,33.0,15.0,29.89,NW,321,3.0,-999.0,48,-99.99,,,-99.99,,2013-03-28 13:21:00,
2013-03-28 07:32:00,33.0,15.0,29.89,NW,322,2.0,-999.0,46,-99.99,,,-99.99,,2013-03-28 13:32:00,
2013-03-28 07:41:00,33.0,15.0,29.89,NW,322,2.0,-999.0,46,-99.99,,,-99.99,,2013-03-28 13:41:00,
2013-03-28 07:52:00,32.0,14.0,29.91,NW,322,2.0,-999.0,47,-99.99,,,-99.99,,2013-03-28 13:52:00,
2013-03-28 08:02:00,34.0,15.0,29.90,NW,322,1.0,-999.0,46,-99.99,,,-99.99,,2013-03-28 14:02:00,
2013-03-28 08:12:00,34.0,15.0,29.90,NW,322,1.0,-999.0,46,-99.99,,,-99.99,,2013-03-28 14:12:00,
2013-03-28 08:22:00,35.0,15.0,29.91,NW,322,1.0,-999.0,43,-99.99,,,-99.99,,2013-03-28 14:22:00,
2013-03-28 08:32:00,35.0,15.0,29.91,NW,322,1.0,-999.0,43,-99.99,,,-99.99,,2013-03-28 14:32:00,
2013-03-28 08:42:00,35.0,15.0,29.91,NW,322,1.0,-999.0,43,-99.99,,,-99.99,,2013-03-28 14:42:00,
2013-03-28 08:51:00,40.0,16.0,29.90,NW,323,2.0,-999.0,37,-99.99,,,-99.99,,2013-03-28 14:51:00,
2013-03-28 09:02:00,42.0,17.0,29.88,NW,323,2.0,-999.0,36,-99.99,,,-99.99,,2013-03-28 15:02:00,
2013-03-28 09:11:00,42.0,17.0,29.88,NW,323,2.0,-999.0,36,-99.99,,,-99.99,,2013-03-28 15:11:00,
2013-03-28 09:21:00,42.0,17.0,29.88,NW,323,2.0,-999.0,36,-99.99,,,-99.99,,2013-03-28 15:21:00,
2013-03-28 09:32:00,49.0,17.0,29.85,NW,324,2.0,-999.0,28,-99.99,,,-99.99,,2013-03-28 15:32:00,
2013-03-28 09:43:00,49.0,17.0,29.85,NW,324,2.0,-999.0,28,-99.99,,,-99.99,,2013-03-28 15:43:00,
2013-03-28 09:53:00,51.0,16.0,29.89,NW,324,1.0,-999.0,25,-99.99,,,-99.99,,2013-03-28 15:53:00,
2013-03-28 10:02:00,54.0,17.0,29.87,NW,324,0.0,-999.0,23,-99.99,,,-99.99,,2013-03-28 16:02:00,
2013-03-28 10:12:00,54.0,17.0,29.87,NW,324,0.0,-999.0,23,-99.99,,,-99.99,,2013-03-28 16:12:00,
2013-03-28 10:22:00,56.0,17.0,29.86,North,354,1.0,-999.0,21,-99.99,,,-99.99,,2013-03-28 16:22:00,
2013-03-28 10:32:00,56.0,16.0,29.85,ESE,110,2.0,-999.0,20,-99.99,,,-99.99,,2013-03-28 16:32:00,
2013-03-28 10:42:00,56.0,16.0,29.85,ESE,110,2.0,-999.0,20,-99.99,,,-99.99,,2013-03-28 16:42:00,
2013-03-28 10:52:00,57.0,15.0,29.88,ESE,117,1.0,-999.0,19,-99.99,,,-99.99,,2013-03-28 16:52:00,
2013-03-28 11:02:00,58.0,16.0,29.87,SE,131,3.0,-999.0,19,-99.99,,,-99.99,,2013-03-28 17:02:00,
2013-03-28 11:12:00,58.0,16.0,29.87,SE,131,3.0,-999.0,19,-99.99,,,-99.99,,2013-03-28 17:12:00,
2013-03-28 11:22:00,59.0,16.0,29.87,SW,214,3.0,-999.0,18,-99.99,,,-99.99,,2013-03-28 17:22:00,
2013-03-28 11:32:00,58.0,16.0,29.87,SSE,164,3.0,-999.0,19,-99.99,,,-99.99,,2013-03-28 17:32:00,
2013-03-28 11:42:00,58.0,16.0,29.87,SSE,164,3.0,-999.0,19,-99.99,,,-99.99,,2013-03-28 17:42:00,
2013-03-28 11:52:00,61.0,17.0,29.88,SSE,165,1.0,-999.0,18,-99.99,,,-99.99,,2013-03-28 17:52:00,
2013-03-28 12:02:00,60.0,15.0,29.87,SW,226,4.0,-999.0,17,-99.99,,,-99.99,,2013-03-28 18:02:00,
2013-03-28 12:12:00,60.0,15.0,29.87,SW,226,4.0,-999.0,17,-99.99,,,-99.99,,2013-03-28 18:12:00,
2013-03-28 12:22:00,60.0,15.0,29.87,SW,226,4.0,-999.0,17,-99.99,,,-99.99,,2013-03-28 18:22:00,
2013-03-28 12:32:00,61.0,14.0,29.86,WSW,255,4.0,-999.0,16,-99.99,,,-99.99,,2013-03-28 18:32:00,
2013-03-28 12:42:00,61.0,14.0,29.86,WSW,255,4.0,-999.0,16,-99.99,,,-99.99,,2013-03-28 18:42:00,
2013-03-28 12:52:00,62.0,15.0,29.87,WSW,242,6.0,-999.0,16,-99.99,,,-99.99,,2013-03-28 18:52:00,
2013-03-28 13:02:00,62.0,15.0,29.86,WSW,257,5.0,-999.0,16,-99.99,,,-99.99,,2013-03-28 19:02:00,
2013-03-28 13:12:00,62.0,15.0,29.86,WSW,257,5.0,-999.0,16,-99.99,,,-99.99,,2013-03-28 19:12:00,
2013-03-28 13:22:00,62.0,12.0,29.86,SW,224,5.0,-999.0,14,-99.99,,,-99.99,,2013-03-28 19:22:00,
2013-03-28 13:32:00,63.0,13.0,29.85,West,269,5.0,-999.0,14,-99.99,,,-99.99,,2013-03-28 19:32:00,
2013-03-28 13:42:00,63.0,13.0,29.85,West,269,5.0,-999.0,14,-99.99,,,-99.99,,2013-03-28 19:42:00,
2013-03-28 13:52:00,64.0,14.0,29.86,SW,220,8.0,-999.0,14,-99.99,,,-99.99,,2013-03-28 19:52:00,
2013-03-28 14:02:00,64.0,14.0,29.86,West,278,6.0,-999.0,14,-99.99,,,-99.99,,2013-03-28 20:02:00,
2013-03-28 14:12:00,64.0,14.0,29.86,West,278,6.0,-999.0,14,-99.99,,,-99.99,,2013-03-28 20:12:00,
2013-03-28 14:22:00,64.0,14.0,29.86,WSW,243,10.0,-999.0,14,-99.99,,,-99.99,,2013-03-28 20:22:00,
2013-03-28 14:32:00,65.0,13.0,29.85,SW,229,6.0,-999.0,13,-99.99,,,-99.99,,2013-03-28 20:32:00,
2013-03-28 14:42:00,65.0,13.0,29.85,SW,229,6.0,-999.0,13,-99.99,,,-99.99,,2013-03-28 20:42:00,
2013-03-28 14:52:00,65.0,13.0,29.85,WSW,249,9.0,-999.0,13,-99.99,,,-99.99,,2013-03-28 20:52:00,
2013-03-28 15:02:00,65.0,13.0,29.85,WSW,249,9.0,-999.0,13,-99.99,,,-99.99,,2013-03-28 21:02:00,
2013-03-28 15:11:00,65.0,13.0,29.85,WSW,249,9.0,-999.0,13,-99.99,,,-99.99,,2013-03-28 21:11:00,
2013-03-28 15:22:00,65.0,13.0,29.83,SW,222,4.0,-999.0,13,-99.99,,,-99.99,,2013-03-28 21:22:00,
2013-03-28 15:32:00,66.0,14.0,29.82,West,271,4.0,-999.0,13,-99.99,,,-99.99,,2013-03-28 21:32:00,
2013-03-28 15:42:00,66.0,14.0,29.82,West,271,4.0,-999.0,13,-99.99,,,-99.99,,2013-03-28 21:42:00,
2013-03-28 15:52:00,65.0,13.0,29.82,WSW,240,8.0,-999.0,13,-99.99,,,-99.99,,2013-03-28 21:52:00,
2013-03-28 16:02:00,65.0,13.0,29.81,WSW,245,3.0,-999.0,13,-99.99,,,-99.99,,2013-03-28 22:02:00,
2013-03-28 16:12:00,65.0,13.0,29.81,WSW,245,3.0,-999.0,13,-99.99,,,-99.99,,2013-03-28 22:12:00,
2013-03-28 16:22:00,65.0,13.0,29.81,WNW,282,6.0,-999.0,13,-99.99,,,-99.99,,2013-03-28 22:22:00,
2013-03-28 16:32:00,66.0,12.0,29.80,West,261,5.0,-999.0,12,-99.99,,,-99.99,,2013-03-28 22:32:00,
2013-03-28 16:42:00,66.0,12.0,29.80,West,261,5.0,-999.0,12,-99.99,,,-99.99,,2013-03-28 22:42:00,
2013-03-28 16:52:00,66.0,12.0,29.80,WSW,248,8.0,-999.0,12,-99.99,,,-99.99,,2013-03-28 22:52:00,
2013-03-28 17:02:00,67.0,13.0,29.80,SW,217,6.0,-999.0,12,-99.99,,,-99.99,,2013-03-28 23:02:00,
2013-03-28 17:12:00,67.0,13.0,29.80,SW,217,6.0,-999.0,12,-99.99,,,-99.99,,2013-03-28 23:12:00,
2013-03-28 17:21:00,67.0,13.0,29.80,SW,217,7.0,-999.0,12,-99.99,,,-99.99,,2013-03-28 23:21:00,
2013-03-28 17:32:00,67.0,13.0,29.80,South,176,5.0,-999.0,12,-99.99,,,-99.99,,2013-03-28 23:32:00,
2013-03-28 17:42:00,67.0,13.0,29.80,South,176,5.0,-999.0,12,-99.99,,,-99.99,,2013-03-28 23:42:00,
2013-03-28 17:52:00,67.0,11.0,29.81,WSW,253,4.0,-999.0,11,-99.99,,,-99.99,,2013-03-28 23:52:00,
2013-03-28 18:02:00,66.0,10.0,29.81,SW,229,8.0,-999.0,11,-99.99,,,-99.99,,2013-03-29 00:02:00,
2013-03-28 18:11:00,66.0,10.0,29.81,SW,229,8.0,-999.0,11,-99.99,,,-99.99,,2013-03-29 00:11:00,
2013-03-28 18:22:00,65.0,9.0,29.81,WSW,240,7.0,-999.0,11,-99.99,,,-99.99,,2013-03-29 00:22:00,
2013-03-28 18:32:00,65.0,11.0,29.82,WSW,250,7.0,-999.0,12,-99.99,,,-99.99,,2013-03-29 00:32:00,
2013-03-28 18:42:00,65.0,11.0,29.82,WSW,250,7.0,-999.0,12,-99.99,,,-99.99,,2013-03-29 00:42:00,
2013-03-28 18:52:00,65.0,11.0,29.84,WSW,248,8.0,-999.0,12,-99.99,,,-99.99,,2013-03-29 00:52:00,
2013-03-28 19:02:00,65.0,11.0,29.84,West,269,7.0,-999.0,12,-99.99,,,-99.99,,2013-03-29 01:02:00,
2013-03-28 19:11:00,65.0,11.0,29.84,West,269,7.0,-999.0,12,-99.99,,,-99.99,,2013-03-29 01:11:00,
2013-03-28 19:22:00,64.0,10.0,29.84,WSW,248,5.0,-999.0,12,-99.99,,,-99.99,,2013-03-29 01:22:00,
2013-03-28 19:32:00,62.0,11.0,29.85,West,259,4.0,-999.0,13,-99.99,,,-99.99,,2013-03-29 01:32:00,
2013-03-28 19:42:00,62.0,11.0,29.85,West,259,4.0,-999.0,13,-99.99,,,-99.99,,2013-03-29 01:42:00,
2013-03-28 19:52:00,61.0,10.0,29.84,West,259,2.0,-999.0,13,-99.99,,,-99.99,,2013-03-29 01:52:00,
2013-03-28 20:02:00,59.0,10.0,29.85,West,259,1.0,-999.0,14,-99.99,,,-99.99,,2013-03-29 02:02:00,
2013-03-28 20:11:00,59.0,10.0,29.85,West,259,1.0,-999.0,14,-99.99,,,-99.99,,2013-03-29 02:11:00,
2013-03-28 20:21:00,58.0,9.0,29.85,West,259,0.0,-999.0,14,-99.99,,,-99.99,,2013-03-29 02:21:00,
2013-03-28 20:32:00,57.0,10.0,29.86,West,259,0.0,-999.0,15,-99.99,,,-99.99,,2013-03-29 02:32:00,
2013-03-28 20:42:00,57.0,10.0,29.86,West,259,0.0,-999.0,15,-99.99,,,-99.99,,2013-03-29 02:42:00,
2013-03-28 20:52:00,57.0,10.0,29.86,West,259,0.0,-999.0,15,-99.99,,,-99.99,,2013-03-29 02:52:00,
2013-03-28 21:02:00,52.0,10.0,29.82,West,259,0.0,-999.0,18,-99.99,,,-99.99,,2013-03-29 03:02:00,
2013-03-28 21:21:00,50.0,12.0,29.85,West,259,0.0,-999.0,21,-99.99,,,-99.99,,2013-03-29 03:21:00,
2013-03-28 21:32:00,49.0,12.0,29.87,West,259,1.0,-999.0,22,-99.99,,,-99.99,,2013-03-29 03:32:00,
2013-03-28 21:52:00,46.0,11.0,29.83,West,259,4.0,-999.0,24,-99.99,,,-99.99,,2013-03-29 03:52:00,
2013-03-28 22:02:00,44.0,12.0,29.86,West,259,3.0,-999.0,27,-99.99,,,-99.99,,2013-03-29 04:02:00,
2013-03-28 22:22:00,43.0,11.0,29.88,West,259,2.0,-999.0,27,-99.99,,,-99.99,,2013-03-29 04:22:00,
2013-03-28 22:33:00,42.0,10.0,29.88,West,259,3.0,-999.0,27,-99.99,,,-99.99,,2013-03-29 04:33:00,
2013-03-28 22:52:00,43.0,10.0,29.88,West,259,1.0,-999.0,26,-99.99,,,-99.99,,2013-03-29 04:52:00,
2013-03-28 23:02:00,44.0,10.0,29.88,NNW,347,2.0,-999.0,25,-99.99,,,-99.99,,2013-03-29 05:02:00,
2013-03-28 23:12:00,44.0,10.0,29.88,NNW,347,2.0,-999.0,25,-99.99,,,-99.99,,2013-03-29 05:12:00,
2013-03-28 23:22:00,44.0,10.0,29.88,NNW,347,2.0,-999.0,25,-99.99,,,-99.99,,2013-03-29 05:22:00,
2013-03-28 23:32:00,42.0,10.0,29.88,NNW,347,1.0,-999.0,27,-99.99,,,-99.99,,2013-03-29 05:32:00,
2013-03-28 23:42:00,42.0,10.0,29.88,NNW,347,1.0,-999.0,27,-99.99,,,-99.99,,2013-03-29 05:42:00,
2013-03-28 23:52:00,41.0,10.0,29.87,NNW,347,2.0,-999.0,28,-99.99,,,-99.99,,2013-03-29 05:52:00,